Tracking 17996 objects as of 26-February-2017
HD Live streaming from Space Station
objects crossing your sky now

SL-14 DEB

Track SL-14 DEB now!
10-day predictions


NORAD ID: 19450
Int'l Code: 1978-100AH
Perigee: 1,685.1 km
Apogee: 1,708.2 km
Inclination: 82.6 °
Period: 120.2 minutes
Semi major axis: 8067 km
RCS: 0.0566 m2 (small)
Launch date: October 26, 1978
Source: Commonwealth of Independent States (former USSR) (CIS)
Launch site: PLESETSK MISSILE AND SPACE COMPLEX (PKMTR)

Note: This is SATELLITE DEBRIS
Your satellite tracking list
Your tracking list is empty





NASA's NSSDC Master Catalog

Two Line Element Set (TLE):
1 19450U 78100AH  17057.23829573  .00000015  00000-0  76420-4 0  9993
2 19450  82.5525 150.7284 0014326 221.9386 165.6625 11.98073105251781
Source of the keplerian elements: AFSPC